This is the latest recevied weather packets stored in our database for station/object DG2US-10. If no packets are shown the sender has not sent any weather packets the latest 10 day(s).
| Time | Temp. | Humidity | Pressure | Rain* | Wind** | Luminosity | Snow |
|---|---|---|---|---|---|---|---|
| 1777758932 | 19.44° C | 28% | 1016.6 hPa | - | - | - | - |
| 1777758031 | 20° C | 28% | 1016.7 hPa | - | - | - | - |
| 1777757131 | 20.56° C | 27% | 1016.8 hPa | - | - | - | - |
| 1777756231 | 21.11° C | 27% | 1016.8 hPa | - | - | - | - |
| 1777755331 | 21.67° C | 26% | 1017 hPa | - | - | - | - |
| 1777754431 | 22.22° C | 27% | 1017 hPa | - | - | - | - |
| 1777753531 | 22.22° C | 26% | 1017.1 hPa | - | - | - | - |
| 1777752631 | 22.78° C | 26% | 1017.1 hPa | - | - | - | - |
| 1777751731 | 23.33° C | 26% | 1017.2 hPa | - | - | - | - |
| 1777750831 | 24.44° C | 25% | 1017.2 hPa | - | - | - | - |
| 1777749931 | 25° C | 25% | 1017.2 hPa | - | - | - | - |
| 1777749031 | 25.56° C | 24% | 1017.2 hPa | - | - | - | - |
| 1777748130 | 26.67° C | 24% | 1017.1 hPa | - | - | - | - |
| 1777747230 | 27.22° C | 23% | 1017 hPa | - | - | - | - |
| 1777746330 | 27.22° C | 23% | 1017 hPa | - | - | - | - |
| 1777745430 | 27.78° C | 22% | 1016.9 hPa | - | - | - | - |
| 1777744530 | 27.78° C | 22% | 1017 hPa | - | - | - | - |
| 1777743630 | 28.33° C | 22% | 1016.9 hPa | - | - | - | - |
| 1777742730 | 28.33° C | 20% | 1017.1 hPa | - | - | - | - |
| 1777741830 | 28.33° C | 21% | 1017.1 hPa | - | - | - | - |
| 1777740930 | 28.89° C | 22% | 1017.2 hPa | - | - | - | - |
| 1777740030 | 28.33° C | 21% | 1017.4 hPa | - | - | - | - |
| 1777739130 | 28.89° C | 23% | 1017.5 hPa | - | - | - | - |
| 1777738230 | 31.11° C | 19% | 1017.7 hPa | - | - | - | - |
| 1777737330 | 32.78° C | 19% | 1018 hPa | - | - | - | - |
* Rain since midnight (hover to see other rain measurements)
** Current wind speed in m/s (hover to see current wind gust speed)